Lapse_Rate
4.6 4.4 4.5 4.5 4.9 4.8 4.7 4.4 4.3 4.4 4.6 4.5 4.6 4.7 4.9 5.0 5.2 5.4 5.3 5.3 5.5 5.4 5.1 5.0 4.9 5.0 5.1 4.9 4.9 5.0 5.0 5.1 5.3 5.2 5.1 5.2 5.5 5.6 5.5 5.4 5.3 5.4 5.7 5.6 5.9 5.7 5.3
4.8 4.5 4.2 4.4 4.5 4.5 4.3 4.4 4.5 4.4 4.6 4.8 4.8 4.6 4.3 4.3 4.5 4.8 5.0 5.2 5.2 5.3 5.2 4.8 4.8 4.7 4.7 4.7 4.9 4.6 4.6 4.9 5.0 5.0 5.1 5.2 5.5 5.4 5.4 5.2 5.1 5.6 5.6 5.7 6.1 5.6 5.4
4.6 4.5 4.2 4.1 4.4 4.3 4.4 4.4 4.4 4.6 4.5 4.6 4.5 4.4 4.3 4.5 4.6 4.7 4.3 4.5 4.8 5.3 5.3 5.2 5.2 4.9 4.6 4.7 4.5 4.5 4.6 4.8 4.8 4.8 4.9 5.2 5.4 5.3 5.3 5.1 5.2 5.0 5.3 5.7 6.1 5.9 5.6
4.5 4.6 4.6 4.3 4.4 4.5 4.7 4.8 4.6 4.7 4.7 4.7 4.6 4.5 4.3 4.3 4.7 4.9 4.7 4.8 4.9 5.0 4.9 4.9 5.1 5.0 5.0 5.1 4.8 4.5 4.5 4.5 4.7 4.8 4.7 4.9 5.0 5.0 5.1 5.1 5.1 5.2 5.1 5.9 6.6 6.8 5.6
4.7 4.9 4.6 4.7 4.7 4.5 4.4 4.3 4.4 4.5 4.3 4.2 4.3 4.4 4.4 4.2 4.3 4.3 4.5 4.7 4.9 5.0 4.8 4.9 5.0 4.8 5.1 5.0 5.0 4.7 4.6 4.3 4.3 4.5 4.5 4.6 4.8 5.1 5.3 5.0 5.1 5.4 5.0 5.3 6.3 6.9 5.5
4.9 4.8 4.9 4.6 4.4 4.3 4.1 4.0 4.1 4.2 4.2 4.0 3.9 4.0 4.0 4.0 4.3 4.4 4.7 4.8 4.7 5.1 5.1 4.9 5.0 5.1 4.9 4.9 4.6 4.5 4.5 4.5 4.3 4.2 4.2 4.3 4.6 5.1 5.3 5.0 4.6 4.6 4.3 4.7 5.5 6.0 5.1
4.9 5.0 5.0 4.8 4.6 4.5 4.3 4.2 4.3 4.2 4.0 4.0 4.0 4.1 4.2 4.3 4.2 4.3 4.4 4.5 4.6 4.6 4.8 4.3 4.7 4.6 4.6 4.7 4.6 4.5 4.3 4.5 4.6 4.4 4.3 4.4 4.7 6.0 4.5 4.8 4.6 4.5 4.4 4.1 6.0 5.9 4.0
4.9 5.0 5.1 5.1 4.8 4.3 4.2 4.3 4.2 4.2 4.2 4.2 4.1 4.2 4.3 4.3 4.3 4.4 4.4 4.2 4.1 3.9 4.5 4.8 4.6 4.5 4.2 4.5 4.5 4.4 4.2 4.1 4.5 4.5 4.4 4.4 5.6 5.0 4.7 4.4 4.5 4.3 4.1 5.2 4.3 5.7 4.0
5.0 5.0 5.0 4.8 4.5 4.3 4.2 4.2 4.3 4.4 4.4 4.4 4.3 4.3 4.4 4.5 4.5 4.5 4.5 4.4 4.1 3.8 3.9 4.5 4.6 4.4 4.4 4.4 4.3 4.3 4.2 4.3 4.6 4.9 4.7 4.7 5.7 5.4 4.6 4.7 4.3 4.6 4.9 5.0 4.4 4.7 4.5
5.1 5.1 4.9 4.2 4.1 4.3 4.3 4.3 4.5 4.7 4.7 4.8 4.7 4.8 5.0 4.8 4.9 4.8 4.7 4.5 4.4 4.1 4.0 4.1 4.3 4.8 5.1 4.9 4.9 4.9 4.8 4.8 4.9 5.1 4.9 5.1 6.1 5.4 5.0 5.0 4.7 3.9 6.1 4.5 4.3 3.8 3.9
4.9 4.7 4.3 3.9 4.0 4.1 4.6 4.8 5.0 5.1 5.2 5.2 5.2 5.4 5.1 4.9 4.9 4.8 4.7 4.6 4.5 4.1 2.7 4.9 5.5 5.6 5.5 5.6 5.5 5.7 5.6 5.4 5.3 5.0 4.7 5.4 5.6 5.1 5.2 5.5 4.9 5.1 4.8 4.9 4.6 4.5 3.9
4.6 4.6 4.3 4.1 4.4 4.4 4.6 5.1 5.5 5.7 5.6 5.6 5.7 5.3 4.8 4.9 5.1 4.9 4.9 4.8 4.4 4.3 3.3 5.4 5.9 5.9 5.9 6.0 6.1 6.1 5.8 5.5 5.4 4.7 4.4 5.9 5.4 5.2 5.6 5.6 5.3 5.3 5.3 5.0 5.4 4.5 4.2
4.7 4.5 4.5 4.5 4.4 4.5 4.8 5.3 5.9 6.1 6.1 6.0 5.8 5.6 5.4 5.4 5.2 4.8 4.6 4.6 4.5 4.2 5.1 5.5 6.0 5.9 6.0 6.4 6.0 5.9 5.9 5.7 5.3 5.0 4.9 5.2 6.1 5.7 5.8 5.7 5.8 5.8 5.2 4.6 4.2 4.6 4.4
4.6 4.5 4.7 4.8 4.9 4.7 5.1 5.5 6.1 6.2 6.3 6.2 6.0 5.5 5.5 5.6 5.3 4.8 4.5 4.5 4.3 4.8 5.0 5.8 6.1 6.3 6.3 6.2 6.0 6.1 5.6 5.9 6.4 5.1 4.8 5.0 5.7 6.1 6.0 6.0 5.8 6.1 5.7 5.6 5.6 4.8 5.3
4.6 4.7 4.9 5.0 5.0 5.0 5.1 5.7 6.3 6.4 6.4 6.3 6.3 5.7 5.5 5.4 5.0 4.8 4.5 4.3 4.8 4.8 4.9 5.8 6.7 6.6 6.5 6.4 6.3 5.9 6.0 6.0 5.8 6.0 5.8 5.7 5.5 6.0 6.1 6.3 6.2 5.9 6.0 6.1 5.6 5.4 4.9
4.6 4.8 5.0 5.2 5.4 5.2 5.3 5.9 6.3 6.4 6.5 6.6 6.5 6.0 5.4 5.4 4.9 4.7 4.5 4.3 4.8 4.8 5.1 5.9 6.2 6.7 6.7 6.3 6.1 6.4 6.2 6.4 6.4 6.5 6.3 5.8 5.6 5.7 6.4 6.9 6.6 6.1 5.9 5.8 6.2 6.1 5.5
4.8 4.8 5.0 5.2 5.4 5.5 5.6 5.9 6.2 6.5 6.8 6.8 6.7 6.2 5.5 5.3 5.1 4.8 4.5 4.4 4.7 5.3 5.6 6.1 6.6 6.6 6.6 6.3 6.3 6.3 6.4 6.7 6.5 6.3 6.0 5.6 5.3 5.3 5.6 6.4 6.4 6.5 6.1 5.8 5.3 5.7 5.5
4.9 5.0 5.0 5.1 5.6 5.7 5.8 6.1 6.3 6.5 6.8 6.6 6.5 6.1 5.7 5.4 5.2 4.6 4.3 4.5 4.6 5.4 6.1 6.5 6.8 6.9 6.5 6.7 6.5 6.6 6.6 6.7 6.7 6.5 6.2 6.2 5.5 5.0 5.5 6.6 5.9 6.3 5.8 5.5 5.1 5.1 4.7
4.9 5.1 5.1 5.3 5.7 5.7 6.0 6.1 6.3 6.7 6.6 6.4 6.3 6.1 5.7 5.3 5.0 4.8 4.5 5.0 5.3 5.5 6.4 6.5 6.4 6.5 6.7 6.8 6.6 6.5 6.7 7.0 6.8 6.5 6.6 6.2 5.8 5.4 5.5 6.3 6.4 5.7 5.8 5.9 5.1 4.7 4.4
5.0 5.2 5.3 5.5 5.7 5.9 6.0 5.9 6.2 6.6 6.5 6.3 6.0 5.8 5.5 5.1 5.0 4.6 4.8 5.5 5.6 5.2 5.6 6.0 6.1 6.4 6.5 6.6 6.6 6.6 6.7 6.7 6.7 6.8 6.5 6.6 6.3 6.1 5.4 6.0 6.1 5.7 6.0 6.8 5.4 4.6 4.7
5.0 5.3 5.5 5.7 5.7 6.0 6.0 5.9 6.1 6.4 6.4 6.2 5.8 5.5 5.3 5.2 4.9 4.8 4.8 4.9 4.9 5.3 5.5 6.0 6.1 6.2 6.1 6.1 6.1 6.4 6.9 6.7 6.8 7.2 7.0 6.7 6.3 6.3 6.0 6.0 6.0 5.7 5.8 6.4 5.9 5.6 4.7
5.0 5.4 5.6 5.6 5.6 5.8 6.0 5.9 5.9 6.1 6.3 6.1 5.7 5.4 5.1 5.0 4.9 4.5 4.6 4.4 4.7 5.0 5.3 5.8 6.0 5.9 5.8 5.9 5.9 5.7 6.5 6.5 6.3 6.8 6.7 6.6 6.3 6.1 5.8 6.1 6.2 5.7 6.2 6.1 6.2 6.4 5.8
5.2 5.4 5.6 5.7 5.7 5.9 5.9 5.9 5.9 6.2 6.3 6.2 5.7 5.5 5.0 4.9 4.7 4.3 3.7 3.6 4.4 4.8 5.1 5.5 5.4 5.4 5.9 5.7 5.8 6.3 6.3 6.5 6.3 6.2 6.5 6.4 6.5 6.1 5.4 6.1 6.3 5.8 6.6 6.5 6.3 5.8 5.5
5.3 5.5 5.6 5.6 5.7 6.0 6.0 5.8 5.8 6.6 6.4 6.0 5.7 5.3 5.0 4.8 4.6 4.3 3.8 3.8 4.5 4.8 4.9 5.2 5.3 5.5 5.6 5.5 5.7 6.2 6.6 6.6 6.8 6.8 6.4 6.3 6.4 6.4 6.0 6.2 5.0 6.6 6.4 6.5 6.3 6.0 5.7
5.3 5.5 5.7 5.7 5.9 6.0 6.1 5.8 5.7 6.2 6.4 6.0 5.5 5.2 4.9 4.7 4.6 4.0 3.8 3.5 4.0 4.7 5.2 5.6 5.7 5.7 5.9 6.2 6.2 5.9 6.5 6.8 7.0 6.8 6.9 7.1 6.6 6.5 6.3 6.3 6.8 7.1 6.7 6.6 6.3 6.2 6.0
5.2 5.6 5.7 5.8 5.9 6.1 6.2 5.9 5.8 5.9 6.2 5.9 5.3 5.1 4.9 4.2 4.2 3.8 3.5 3.5 4.2 4.4 5.1 6.0 6.3 6.4 6.2 6.1 5.9 5.7 5.7 5.9 6.5 7.0 7.1 6.9 6.7 6.5 6.6 6.1 5.0 6.9 6.8 6.8 6.7 6.6 6.4
5.3 5.6 5.8 5.8 5.9 6.1 6.2 6.0 5.7 5.8 5.8 5.8 5.3 4.9 4.7 4.3 4.3 3.5 3.5 3.7 4.3 4.8 4.8 5.6 6.0 6.6 6.6 6.5 6.4 6.2 6.4 6.5 6.6 7.0 7.2 7.1 6.9 6.9 7.0 7.2 7.1 7.3 7.4 7.0 7.1 6.4 6.4
5.2 5.6 5.8 5.8 5.9 6.0 6.1 6.2 6.0 5.9 5.9 6.0 5.3 5.0 4.6 4.5 4.3 3.5 3.6 4.2 4.6 5.0 5.1 5.5 5.9 6.1 6.2 6.5 6.6 6.7 6.7 6.7 6.9 7.3 7.4 7.5 7.4 7.5 7.5 7.4 7.2 7.5 7.4 7.2 6.8 6.4 6.2
5.3 5.7 5.8 5.9 5.9 6.1 6.1 6.3 6.0 6.0 5.8 6.0 5.4 5.0 4.7 4.2 4.2 3.8 4.0 4.2 4.8 5.1 5.3 5.8 6.4 6.5 6.6 6.8 6.8 6.7 6.6 6.7 7.0 6.9 7.4 7.6 7.5 7.0 7.4 7.6 7.5 7.5 7.2 6.9 6.8 6.8 6.4
Wind_Speed
13 13 13 13 12 13 13 12 12 12 12 14 14 13 13 12 11 12 11 10 10 10 8 6 6 9 4 3 6 5 9 10 5 3 4 3 4 2 0 1 4 3 3 6 8 14 13
12 12 11 12 12 12 13 13 12 12 12 13 13 14 17 16 13 12 12 10 9 8 8 7 5 5 2 3 2 3 12 6 3 3 3 4 3 3 1 1 1 2 6 12 11 16 11
11 11 12 12 12 12 13 13 12 11 12 14 14 14 14 12 12 13 12 10 10 9 8 6 4 0 1 9 4 9 9 3 4 3 3 2 3 3 3 2 2 3 8 8 8 4 5
10 11 11 11 12 13 12 11 12 12 13 13 14 15 17 17 17 14 10 9 10 9 8 6 4 2 6 3 1 6 3 3 3 3 4 4 4 3 3 2 3 3 3 5 4 0 3
11 11 12 12 11 12 12 11 12 12 14 13 16 17 17 18 18 18 15 14 10 8 7 5 1 2 7 2 3 6 6 4 3 1 3 3 3 1 1 1 4 4 3 3 8 5 3
11 10 9 10 13 12 13 14 12 13 14 12 16 18 19 19 19 19 18 14 4 3 2 0 1 3 4 4 3 4 3 7 3 3 0 2 1 1 2 4 4 4 4 5 6 4 6
11 11 12 11 12 11 12 13 13 14 15 16 15 17 18 20 20 19 8 3 4 2 2 7 4 3 0 1 3 2 4 4 3 3 4 3 5 12 12 13 2 2 4 11 11 15 9
13 13 12 12 12 12 12 13 14 15 14 15 15 17 20 21 22 9 3 3 2 4 8 8 11 6 3 2 2 3 7 5 5 7 4 4 12 10 8 8 10 10 17 18 10 19 7
16 15 14 14 13 13 12 13 13 13 13 14 15 17 20 25 14 4 1 2 5 1 3 6 4 3 4 4 3 7 9 4 4 7 8 9 4 3 3 6 9 13 15 16 14 7 9
16 17 15 15 14 14 13 14 13 13 12 13 13 16 18 23 4 3 2 7 6 3 3 4 2 1 2 1 4 4 10 5 3 7 8 9 10 9 4 7 8 10 12 19 19 3 4
17 18 19 18 18 16 14 14 13 13 11 13 11 12 14 7 2 2 5 12 4 3 4 3 2 1 2 4 2 2 3 1 5 6 4 7 2 5 7 8 10 10 6 8 12 11 11
15 16 17 16 17 18 15 16 13 14 11 12 11 12 11 2 2 2 12 8 3 4 6 3 1 0 0 3 2 4 5 5 3 6 11 18 3 5 7 4 10 5 5 10 11 5 6
15 16 16 18 22 20 20 15 14 15 12 11 10 11 7 1 3 10 7 3 4 4 5 6 2 1 3 4 3 7 6 7 5 4 4 6 9 7 8 4 2 3 3 4 4 3 6
14 15 16 16 16 19 20 20 18 11 12 8 9 8 3 2 6 5 3 5 3 2 2 4 4 4 5 3 3 5 2 4 13 9 4 4 5 8 8 5 3 6 5 2 6 3 8
13 14 15 16 19 19 20 20 22 15 4 3 6 3 2 3 5 2 4 3 5 4 3 7 9 2 3 2 1 3 5 4 4 14 6 4 5 2 5 2 2 1 4 2 6 16 10
13 13 14 15 15 19 21 20 20 22 5 1 2 2 2 7 4 4 4 5 4 3 4 2 3 1 2 5 5 2 3 3 2 1 3 3 6 4 6 3 2 3 4 3 3 5 5
11 13 13 15 17 17 20 20 22 20 4 2 3 3 2 7 3 4 2 5 6 5 2 2 3 4 4 3 2 2 6 4 2 1 0 2 3 1 4 3 0 3 2 2 3 4 4
12 12 14 16 17 18 18 17 21 18 1 2 2 2 3 3 2 1 2 3 5 5 1 4 1 1 4 3 5 4 5 3 4 3 5 1 2 4 8 14 6 3 4 3 1 4 4
10 11 13 14 16 18 20 19 20 21 4 1 2 2 2 1 1 3 4 5 4 4 3 3 3 6 0 4 4 3 4 4 5 3 3 3 3 4 6 3 3 4 1 3 3 5 8
8 10 13 15 16 18 18 20 18 19 15 2 2 3 1 3 1 1 4 7 5 6 5 4 4 3 3 4 6 6 4 3 4 2 3 5 3 6 7 7 2 8 14 13 3 6 10
7 9 12 11 13 15 18 18 21 20 14 2 3 1 1 4 3 1 2 6 8 6 5 5 3 4 5 4 5 5 6 4 8 7 2 3 4 6 11 12 10 12 14 17 14 14 10
10 11 12 12 13 15 14 16 19 23 11 4 2 2 0 3 2 2 3 3 4 3 4 7 4 10 13 11 10 22 18 7 7 3 3 3 4 2 11 10 11 13 14 12 16 16 10
7 8 8 10 12 13 13 13 13 17 9 3 1 1 0 3 1 3 4 4 10 12 6 4 10 14 12 11 9 15 14 14 10 9 5 3 1 2 9 4 6 6 3 3 3 2 4
7 7 8 9 12 14 13 11 9 8 7 2 1 2 1 4 2 2 6 11 8 7 7 11 6 3 5 7 13 11 15 17 15 16 13 11 7 3 3 2 3 2 2 2 3 8 11
4 7 9 10 11 12 13 14 14 14 0 2 1 2 1 3 4 6 3 3 8 7 5 6 5 4 7 6 5 6 5 5 3 2 4 11 7 3 2 3 5 2 4 3 2 5 11
6 7 9 10 10 11 12 12 12 12 7 2 2 2 1 2 4 4 3 3 4 4 4 5 4 4 3 2 3 3 3 4 5 7 3 1 5 2 2 2 4 1 4 10 8 2 13
5 6 8 8 7 8 9 8 8 8 9 2 2 4 1 2 3 4 2 3 3 2 3 4 6 6 4 2 1 2 4 2 2 3 4 3 2 3 7 5 3 8 17 10 2 3 12
6 7 8 9 10 12 13 13 14 13 10 2 3 9 3 2 6 7 3 3 4 2 3 4 2 3 2 2 1 2 2 3 3 3 2 3 1 2 2 2 4 18 2 5 7 8 9
5 7 8 9 10 10 11 11 11 12 12 9 2 2 5 3 5 4 6 10 11 11 4 2 2 3 2 2 2 2 2 2 2 4 3 4 4 3 3 2 5 6 10 6 8 9 9
Wind_Direction
19 24 24 22 22 21 23 22 20 18 14 14 9 2 355 345 337 333 322 309 301 292 286 289 306 334 354 344 254 200 160 134 97 78 77 78 63 91 99 333 342 221 301 317 296 294 282
18 17 17 18 19 17 16 15 11 10 5 5 4 1 0 356 342 332 322 308 288 278 272 277 294 348 25 289 337 154 123 102 108 84 84 78 124 146 122 259 181 313 291 287 283 277 270
14 11 14 15 12 6 3 6 2 2 360 357 356 356 354 354 345 337 327 316 302 289 277 263 272 160 239 240 341 147 130 136 149 127 113 110 115 110 152 257 242 252 294 278 257 260 262
5 5 6 4 2 359 358 358 356 353 352 354 349 350 349 347 344 336 327 311 301 287 275 263 263 90 248 241 257 145 111 102 149 143 143 168 153 148 178 247 302 243 227 339 291 96 253
353 359 355 355 352 348 344 350 347 347 346 348 347 344 344 346 344 338 326 313 289 271 258 254 1 156 267 310 167 193 149 162 171 195 243 104 92 176 30 83 355 354 258 249 307 263 252
342 341 343 343 337 339 341 342 340 339 339 342 348 344 343 343 340 338 327 320 273 11 323 295 304 5 276 234 187 161 156 138 157 182 175 109 133 186 224 182 224 219 239 221 240 286 215
328 327 332 331 330 328 334 328 334 335 340 342 340 343 340 335 335 336 351 6 9 11 306 209 205 251 191 21 88 118 139 117 137 164 207 198 231 223 205 202 200 355 247 262 266 269 303
320 319 319 319 316 324 326 322 325 330 339 335 341 339 336 336 335 342 64 47 70 228 299 249 248 270 300 253 137 163 138 161 170 206 206 210 245 234 207 202 224 248 271 272 265 265 231
304 305 307 308 309 308 309 310 316 327 333 334 341 342 338 333 336 41 39 40 326 348 276 294 195 194 236 180 253 193 163 170 187 207 204 220 215 95 208 240 223 246 253 269 256 284 244
311 308 304 299 293 296 297 300 307 313 323 328 336 339 342 332 61 312 89 317 335 101 22 268 243 251 139 139 260 185 181 162 232 232 234 254 258 266 282 265 177 253 245 246 262 273 237
352 338 322 318 320 300 284 287 292 301 310 317 321 327 344 20 271 18 313 323 325 59 352 204 219 248 137 180 309 163 181 155 247 203 167 247 231 224 226 229 167 234 198 234 255 246 286
2 352 0 0 355 343 315 286 283 286 296 303 304 319 345 15 26 294 329 325 40 40 263 333 49 262 348 226 241 145 171 248 280 253 231 256 225 240 228 214 193 258 313 263 258 227 244
359 1 7 10 5 355 346 316 286 285 280 287 304 318 334 76 315 330 336 42 21 133 354 330 324 178 217 239 238 201 184 183 218 247 229 279 244 227 209 273 131 113 344 309 341 218 231
2 359 4 12 3 1 356 359 344 314 287 278 313 333 25 67 340 353 47 47 95 237 320 318 309 277 225 161 254 202 250 245 216 218 271 254 314 186 173 227 238 202 183 274 293 270 285
357 359 4 7 3 1 360 355 353 331 355 310 325 2 30 330 350 52 66 37 218 225 271 322 317 318 305 51 271 230 232 243 248 196 216 228 250 249 182 192 173 273 216 235 269 258 262
13 15 12 12 9 5 1 357 357 350 289 209 5 28 335 325 348 59 74 244 262 232 323 4 292 352 307 331 332 31 263 225 266 314 180 346 287 323 308 323 82 135 277 306 274 295 283
23 17 13 16 10 9 4 353 355 356 349 109 61 9 284 337 50 49 161 242 287 279 281 273 261 300 297 291 281 244 272 290 133 114 129 339 257 304 350 278 252 337 70 25 280 274 323
29 24 26 24 20 16 9 357 351 348 322 63 40 336 311 336 349 8 253 222 303 280 48 290 301 253 247 287 263 260 251 245 63 38 299 124 302 275 238 272 179 358 170 159 240 301 279
28 25 27 24 20 19 15 6 14 16 354 28 333 282 316 21 3 318 293 292 269 312 332 309 259 219 61 282 303 275 285 286 183 116 324 357 230 297 325 23 54 237 263 222 280 249 246
34 26 27 21 22 20 15 12 11 10 12 67 54 336 1 54 106 276 321 312 317 342 280 285 281 330 285 257 230 275 267 300 351 268 312 332 228 224 248 253 312 297 308 294 231 275 287
14 15 19 21 15 24 15 10 11 3 359 76 21 310 84 299 327 293 276 288 314 310 353 312 322 232 316 290 297 252 270 315 285 271 176 233 260 241 257 263 264 270 269 286 280 257 262
17 14 12 11 10 18 15 8 3 9 360 72 65 11 184 281 230 280 332 313 289 313 293 295 243 331 311 295 275 285 277 298 266 321 232 221 255 263 279 264 259 267 266 255 264 278 267
14 7 10 21 18 15 8 3 12 12 35 79 12 60 104 279 336 312 329 351 329 322 288 287 304 314 308 294 304 295 272 267 250 258 248 245 246 33 276 274 305 289 242 254 285 91 289
20 5 358 5 20 22 11 2 3 22 55 122 214 109 6 288 300 284 328 307 292 303 286 284 298 254 265 299 294 276 264 261 261 258 246 256 263 224 263 46 265 229 112 58 113 44 33
3 349 7 13 10 6 9 1 1 11 132 96 151 93 28 283 262 311 288 268 299 296 273 266 266 234 317 311 313 343 329 350 300 207 252 237 244 248 248 203 304 43 30 9 321 77 27
343 347 344 352 358 359 358 353 343 347 32 108 228 170 195 282 263 215 265 223 280 298 303 268 299 310 358 291 4 344 289 248 310 331 10 60 230 217 59 163 221 266 339 339 305 186 12
347 344 340 346 348 340 330 326 334 339 333 133 265 179 135 254 267 140 298 301 207 237 249 294 309 341 29 354 290 243 270 213 310 295 331 346 343 260 252 239 297 356 314 311 202 310 355
334 340 337 344 343 341 343 340 335 341 338 305 236 192 182 239 271 210 214 230 278 225 260 274 321 337 353 20 243 308 329 312 294 252 267 277 4 271 304 315 277 348 348 36 333 328 348
340 331 331 338 339 341 342 337 321 313 322 325 229 195 167 247 268 219 216 237 241 255 268 240 232 200 292 308 265 262 288 325 236 303 323 314 3 306 353 40 64 32 68 22 351 334 345